Samos, Greece

5:14 PM EEST on June 24, 2017 (GMT +0300)
Samos

Weather History for LGSM - June, 2013

Change the Weather History Date:

Wednesday, June 12, 2013

  Actual Average Record
Temperature  
Mean Temperature 76 °F -  
Max Temperature 83 °F 87 °F 100 °F (2001)
Min Temperature 67 °F 68 °F 60 °F (2006)
Cooling Degree Days 10    
Growing Degree Days 26 (Base 50)    
Moisture  
Dew Point 64 °F    
Average Humidity 63    
Maximum Humidity 83    
Minimum Humidity 47    
Precipitation  
Precipitation 0.00 in 0.00 in - ()
Sea Level Pressure  
Sea Level Pressure 29.68 in    
Wind  
Wind Speed 3 mph ()    
Max Wind Speed 12 mph    
Max Gust Speed -    
Visibility 6.2 miles    
Events      
Averages and records for this station are not official NWS values.
T = Trace of Precipitation, MM = Missing Value Source: Averaged Metar Reports

Daily Weather History Graph

Daily Weather History Graph

Search for Another Location

Airport or City:

Trip Planner

Search our weather history database for the weather conditions in past years. The results will help you decide how hot, cold, wet, or windy it might be!

Date:

Astronomy

Jun. 12, 2013 Rise Set
Actual Time 5:50 AM EEST 8:34 PM EEST
Civil Twilight 5:18 AM EEST 9:05 PM EEST
Nautical Twilight 4:39 AM EEST 9:44 PM EEST
Astronomical Twilight 3:55 AM EEST 10:28 PM EEST
Moon 9:08 AM EEST (6/12) 11:03 PM EEST (6/12)
Length of Visible Light 15h 46m
Length of Day
14h 44m
Waxing Crescent, 12% of the Moon is Illuminated
Jun 12
Waxing Crescent
Jun 16
First Quarter
Jun 23
Full
Jun 30
Last Quarter
Jul 8
New

Hourly Weather History & Observations

Time (EEST) Temp. Heat Index Dew Point Humidity Pressure Visibility Wind Dir Wind Speed Gust Speed Precip Events Conditions
4:50 AM 69.8 °F - 60.8 °F 73% 29.65 in 6.2 mi Calm Calm - N/A   Partly Cloudy
5:20 AM 68.0 °F - 62.6 °F 83% 29.65 in 6.2 mi Calm Calm - N/A   Partly Cloudy
5:50 AM 68.0 °F - 62.6 °F 83% 29.65 in 6.2 mi Calm Calm - N/A   Partly Cloudy
6:20 AM 68.0 °F - 62.6 °F 83% 29.65 in 6.2 mi Calm Calm - N/A   Partly Cloudy
6:50 AM 68.0 °F - 62.6 °F 83% 29.65 in 6.2 mi Calm Calm - N/A   Scattered Clouds
7:20 AM 68.0 °F - 62.6 °F 83% 29.65 in 6.2 mi Calm Calm - N/A   Scattered Clouds
7:50 AM 68.0 °F - 62.6 °F 83% 29.68 in 6.2 mi Calm Calm - N/A   Scattered Clouds
8:20 AM 69.8 °F - 60.8 °F 73% 29.68 in 6.2 mi Calm Calm - N/A   Scattered Clouds
8:50 AM 73.4 °F - 62.6 °F 69% 29.68 in 6.2 mi Calm Calm - N/A   Scattered Clouds
9:00 AM 73 °F - 62 °F 61% 29.70 in 6 mi Calm Calm - -   Partly Cloudy
9:20 AM 75.2 °F - 62.6 °F 65% 29.68 in 6.2 mi Calm Calm - N/A   Scattered Clouds
9:50 AM 75.2 °F - 60.8 °F 61% 29.68 in 6.2 mi Calm Calm - N/A   Scattered Clouds
10:20 AM 77.0 °F - 59.0 °F 54% 29.68 in 6.2 mi Calm Calm - N/A   Scattered Clouds
10:50 AM 80.6 °F 81.5 °F 60.8 °F 51% 29.71 in 6.2 mi SE 6.9 mph - N/A   Scattered Clouds
11:20 AM 80.6 °F 81.5 °F 60.8 °F 51% 29.71 in 6.2 mi SE 6.9 mph - N/A   Scattered Clouds
11:50 AM 82.4 °F 83.9 °F 64.4 °F 54% 29.71 in 6.2 mi SE 9.2 mph - N/A   Scattered Clouds
12:20 PM 82.4 °F 83.9 °F 64.4 °F 54% 29.71 in 6.2 mi SSE 9.2 mph - N/A   Scattered Clouds
12:50 PM 82.4 °F 83.4 °F 62.6 °F 51% 29.71 in 6.2 mi South 9.2 mph - N/A   Scattered Clouds
1:20 PM 82.4 °F 83.4 °F 62.6 °F 51% 29.71 in 6.2 mi South 9.2 mph - N/A   Scattered Clouds
1:50 PM 82.4 °F 83.9 °F 64.4 °F 54% 29.71 in 6.2 mi SSW 11.5 mph - N/A   Scattered Clouds
2:50 PM 84.2 °F 86.6 °F 66.2 °F 55% 29.68 in 6.2 mi WSW 5.8 mph - N/A   Scattered Clouds
3:00 PM 84 °F - 67 °F 47% 29.71 in 6 mi WSW 5.8 mph - -   Partly Cloudy
3:20 PM 84.2 °F 86.6 °F 66.2 °F 55% 29.68 in 6.2 mi WSW 5.8 mph - N/A   Scattered Clouds
3:50 PM 82.4 °F 85.4 °F 68.0 °F 62% 29.68 in 6.2 mi SSW 9.2 mph - N/A   Scattered Clouds
4:20 PM 82.4 °F 85.4 °F 68.0 °F 62% 29.68 in 6.2 mi SSW 9.2 mph - N/A   Scattered Clouds
4:50 PM 84.2 °F 87.3 °F 68.0 °F 58% 29.68 in 6.2 mi West 9.2 mph - N/A   Scattered Clouds
5:20 PM 82.4 °F 85.4 °F 68.0 °F 62% 29.68 in 6.2 mi WSW 9.2 mph - N/A   Scattered Clouds
5:50 PM 82.4 °F 84.6 °F 66.2 °F 58% 29.68 in 6.2 mi West 10.4 mph - N/A   Scattered Clouds
6:20 PM 82.4 °F 84.6 °F 66.2 °F 58% 29.68 in 6.2 mi West 10.4 mph - N/A   Scattered Clouds
6:50 PM 80.6 °F 82.3 °F 64.4 °F 58% 29.68 in 6.2 mi West 8.1 mph - N/A   Scattered Clouds
7:20 PM 80.6 °F 82.3 °F 64.4 °F 58% 29.68 in 6.2 mi West 8.1 mph - N/A   Scattered Clouds
7:50 PM 78.8 °F - 62.6 °F 57% 29.68 in 6.2 mi ESE 6.9 mph - N/A   Scattered Clouds
8:20 PM 77.0 °F - 62.6 °F 61% 29.68 in 6.2 mi ESE 6.9 mph - N/A   Scattered Clouds
8:50 PM 75.2 °F - 62.6 °F 65% 29.68 in 6.2 mi Calm Calm - N/A   Scattered Clouds
9:00 PM 74 °F - 63 °F 60% 29.68 in 6 mi Calm Calm - -   Partly Cloudy